| time (UTC) | temp F | wind direction | speed MPH | gust MPH | rain 1hr in | rain 24hr in | rain mn in | humidity % | barometer mb |
| 20260505200009 | 66 | 43 | 15.0 | 23.0 | 0.00 | 0.00 | 0.00 | 73 | 1010.1 |
| 20260505195010 | 67 | 40 | 14.0 | 24.0 | 0.00 | 0.00 | 0.00 | 74 | 1009.7 |
| 20260505192007 | 67 | 50 | 17.0 | 27.0 | 0.00 | 0.00 | 0.00 | 77 | 1009.3 |
| 20260505191007 | 68 | 52 | 15.0 | 23.0 | 0.00 | 0.00 | 0.00 | 76 | 1009.0 |
| 20260505190009 | 69 | 40 | 15.0 | 25.0 | 0.00 | 0.00 | 0.00 | 73 | 1008.8 |
| 20260505185007 | 71 | 42 | 11.0 | 17.0 | 0.00 | 0.00 | 0.00 | 69 | 1008.6 |
| 20260505184008 | 73 | 44 | 9.0 | 14.0 | 0.00 | 0.00 | 0.00 | 62 | 1008.4 |
| 20260505183011 | 74 | 45 | 8.0 | 13.0 | 0.00 | 0.00 | 0.00 | 56 | 1008.3 |
| 20260505182007 | 74 | 40 | 6.0 | 10.0 | 0.00 | 0.00 | 0.00 | 54 | 1008.0 |
| 20260505181028 | 75 | 81 | 6.0 | 9.0 | 0.00 | 0.00 | 0.00 | 52 | 1007.9 |
| 20260505180024 | 81 | 334 | 3.0 | 6.0 | 0.00 | 0.00 | 0.00 | 17 | 1007.9 |
| 20260505175028 | 81 | 295 | 4.0 | 8.0 | 0.00 | 0.00 | 0.00 | 17 | 1007.8 |
| 20260505174011 | 80 | 307 | 6.0 | 10.0 | 0.00 | 0.00 | 0.00 | 19 | 1007.7 |
| 20260505173015 | 80 | 275 | 8.0 | 13.0 | 0.00 | 0.00 | 0.00 | 19 | 1007.7 |
| 20260505172008 | 80 | 273 | 7.0 | 12.0 | 0.00 | 0.00 | 0.00 | 19 | 1007.7 |
| 20260505171008 | 80 | 315 | 8.0 | 14.0 | 0.00 | 0.00 | 0.00 | 19 | 1007.7 |
| 20260505165009 | 81 | 286 | 8.0 | 13.0 | 0.00 | 0.00 | 0.00 | 18 | 1007.9 |
| 20260505164010 | 80 | 285 | 10.0 | 16.0 | 0.00 | 0.00 | 0.00 | 19 | 1007.9 |
| 20260505163018 | 81 | 253 | 12.0 | 18.0 | 0.00 | 0.00 | 0.00 | 18 | 1007.8 |
| 20260505162009 | 81 | 284 | 11.0 | 19.0 | 0.00 | 0.00 | 0.00 | 18 | 1008.0 |
| 20260505161010 | 81 | 267 | 10.0 | 16.0 | 0.00 | 0.00 | 0.00 | 18 | 1007.9 |
| 20260505153018 | 81 | 259 | 11.0 | 17.0 | 0.00 | 0.00 | 0.00 | 19 | 1007.9 |
| 20260505152009 | 80 | 258 | 13.0 | 19.0 | 0.00 | 0.00 | 0.00 | 19 | 1007.9 |
| 20260505125008 | 80 | 262 | 11.0 | 18.0 | 0.00 | 0.00 | 0.00 | 22 | 1009.1 |
| 20260505124012 | 79 | 284 | 13.0 | 20.0 | 0.00 | 0.00 | 0.00 | 23 | 1009.2 |
| 20260505123007 | 79 | 250 | 12.0 | 19.0 | 0.00 | 0.00 | 0.00 | 23 | 1009.3 |
| 20260505122008 | 80 | 236 | 14.0 | 23.0 | 0.00 | 0.00 | 0.00 | 22 | 1009.2 |
| 20260505121009 | 80 | 239 | 14.0 | 24.0 | 0.00 | 0.00 | 0.00 | 21 | 1009.2 |
| 20260505120018 | 80 | 249 | 11.0 | 17.0 | 0.00 | 0.00 | 0.00 | 23 | 1009.4 |
| 20260505115007 | 79 | 271 | 9.0 | 15.0 | 0.00 | 0.00 | 0.00 | 23 | 1009.3 |
| 20260505114009 | 78 | 277 | 13.0 | 20.0 | 0.00 | 0.00 | 0.00 | 23 | 1009.5 |
| 20260505113008 | 78 | 243 | 9.0 | 15.0 | 0.00 | 0.00 | 0.00 | 24 | 1009.8 |
| 20260505112009 | 78 | 258 | 12.0 | 18.0 | 0.00 | 0.00 | 0.00 | 23 | 1009.9 |
| 20260505102011 | 76 | 229 | 4.0 | 6.0 | 0.00 | 0.00 | 0.00 | 29 | 1010.5 |
| 20260505101008 | 75 | 266 | 7.0 | 12.0 | 0.00 | 0.00 | 0.00 | 29 | 1010.6 |
| 20260505100048 | 76 | 270 | 7.0 | 11.0 | 0.00 | 0.00 | 0.00 | 28 | 1010.6 |
| 20260505095008 | 76 | 285 | 7.0 | 11.0 | 0.00 | 0.00 | 0.00 | 29 | 1010.6 |
| 20260505093008 | 74 | 253 | 6.0 | 9.0 | 0.00 | 0.00 | 0.00 | 37 | 1010.7 |
| 20260505090027 | 71 | 235 | 4.0 | 7.0 | 0.00 | 0.00 | 0.00 | 48 | 1010.9 |
| 20260505085008 | 71 | 250 | 4.0 | 7.0 | 0.00 | 0.00 | 0.00 | 53 | 1011.0 |
| 20260505084009 | 71 | 258 | 4.0 | 8.0 | 0.00 | 0.00 | 0.00 | 56 | 1011.0 |
| 20260505083008 | 70 | 217 | 4.0 | 7.0 | 0.00 | 0.00 | 0.00 | 60 | 1011.0 |
| 20260505082008 | 69 | 246 | 3.0 | 6.0 | 0.00 | 0.00 | 0.00 | 62 | 1011.1 |
| 20260505081007 | 69 | 251 | 3.0 | 5.0 | 0.00 | 0.00 | 0.00 | 64 | 1011.1 |
| 20260505074009 | 65 | 278 | 4.0 | 6.0 | 0.00 | 0.00 | 0.00 | 69 | 1011.4 |
| 20260505073016 | 65 | 309 | 5.0 | 8.0 | 0.00 | 0.00 | 0.00 | 67 | 1011.4 |
| 20260505072008 | 64 | 305 | 5.0 | 8.0 | 0.00 | 0.00 | 0.00 | 66 | 1011.5 |
| 20260505071009 | 64 | 306 | 5.0 | 8.0 | 0.00 | 0.00 | 0.00 | 67 | 1011.4 |
| 20260505065009 | 62 | 307 | 4.0 | 7.0 | 0.00 | 0.00 | 0.00 | 77 | 1011.4 |
| 20260505064010 | 62 | 307 | 4.0 | 6.0 | 0.00 | 0.00 | 0.00 | 80 | 1011.3 |
| 20260505063009 | 61 | 304 | 4.0 | 7.0 | 0.00 | 0.00 | 0.00 | 83 | 1011.3 |
| 20260505062007 | 61 | 303 | 4.0 | 6.0 | 0.00 | 0.00 | 0.00 | 85 | 1011.3 |
| 20260505061007 | 60 | 293 | 3.0 | 5.0 | 0.00 | 0.00 | 0.00 | 86 | 1011.3 |
| 20260505055010 | 60 | 279 | 3.0 | 5.0 | 0.00 | 0.00 | 0.00 | 87 | 1011.2 |
| 20260505053020 | 60 | 274 | 3.0 | 5.0 | 0.00 | 0.00 | 0.00 | 87 | 1011.1 |
| 20260505052008 | 60 | 268 | 5.0 | 7.0 | 0.00 | 0.00 | 0.00 | 87 | 1011.0 |
| 20260505051008 | 60 | 281 | 3.0 | 4.0 | 0.00 | 0.00 | 0.00 | 88 | 1011.0 |
| 20260505041008 | 60 | 316 | 3.0 | 4.0 | 0.00 | 0.00 | 0.00 | 88 | 1011.1 |
| 20260505040008 | 60 | 317 | 3.0 | 5.0 | 0.00 | 0.00 | 0.00 | 88 | 1011.1 |
| 20260505035008 | 61 | 301 | 4.0 | 6.0 | 0.00 | 0.00 | 0.00 | 88 | 1011.1 |
| 20260505034009 | 61 | 302 | 3.0 | 5.0 | 0.00 | 0.00 | 0.00 | 88 | 1011.3 |
| 20260505031008 | 61 | 270 | 1.0 | 1.0 | 0.00 | 0.00 | 0.00 | 87 | 1011.2 |
| 20260505030025 | 61 | 270 | 2.0 | 3.0 | 0.00 | 0.00 | 0.00 | 87 | 1011.4 |
| 20260505025009 | 61 | 269 | 2.0 | 3.0 | 0.00 | 0.00 | 0.00 | 87 | 1011.4 |
| 20260505024008 | 61 | 287 | 2.0 | 4.0 | 0.00 | 0.00 | 0.00 | 86 | 1011.4 |
| 20260505022049 | 62 | 306 | 2.0 | 3.0 | 0.00 | 0.00 | 0.00 | 86 | 1011.5 |
| 20260505021011 | 62 | 349 | 3.0 | 4.0 | 0.00 | 0.00 | 0.00 | 86 | 1011.3 |
| 20260505020018 | 62 | 5 | 3.0 | 5.0 | 0.00 | 0.00 | 0.00 | 86 | 1011.3 |
| 20260505015015 | 62 | 347 | 3.0 | 4.0 | 0.00 | 0.00 | 0.00 | 86 | 1011.2 |
| 20260505014009 | 62 | 6 | 2.0 | 4.0 | 0.00 | 0.00 | 0.00 | 86 | 1011.3 |
| 20260505013020 | 62 | 9 | 3.0 | 5.0 | 0.00 | 0.00 | 0.00 | 86 | 1011.3 |
| 20260505011018 | 62 | 17 | 3.0 | 5.0 | 0.00 | 0.00 | 0.00 | 84 | 1011.5 |
| 20260505010025 | 62 | 3 | 2.0 | 3.0 | 0.00 | 0.00 | 0.00 | 84 | 1011.6 |
| 20260505004024 | 63 | 276 | 1.0 | 2.0 | 0.00 | 0.00 | 0.00 | 83 | 1011.9 |
| 20260505002010 | 63 | 91 | 2.0 | 3.0 | 0.00 | 0.00 | 0.00 | 83 | 1012.0 |
| 20260505001015 | 63 | 84 | 2.0 | 3.0 | 0.00 | 0.00 | 0.00 | 83 | 1012.1 |
| 20260505000011 | 63 | 77 | 3.0 | 5.0 | 0.00 | 0.00 | 0.00 | 83 | 1012.2 |
| 20260504234010 | 63 | 69 | 3.0 | 4.0 | 0.00 | 0.00 | 0.00 | 83 | 1012.1 |
| 20260504233010 | 63 | 64 | 3.0 | 6.0 | 0.00 | 0.00 | 0.00 | 83 | 1012.1 |
| 20260504230032 | 64 | 44 | 4.0 | 5.0 | 0.00 | 0.00 | 0.00 | 80 | 1012.1 |
| 20260504224009 | 64 | 90 | 1.0 | 2.0 | 0.00 | 0.00 | 0.00 | 79 | 1012.0 |
| 20260504223011 | 64 | 76 | 1.0 | 3.0 | 0.00 | 0.00 | 0.00 | 80 | 1012.0 |
| 20260504222008 | 64 | 60 | 3.0 | 5.0 | 0.00 | 0.00 | 0.00 | 80 | 1012.0 |
| 20260504221009 | 64 | 56 | 4.0 | 7.0 | 0.00 | 0.00 | 0.00 | 80 | 1011.8 |
| 20260504220008 | 64 | 34 | 2.0 | 4.0 | 0.00 | 0.00 | 0.00 | 80 | 1011.9 |
| 20260504211007 | 64 | 49 | 4.0 | 7.0 | 0.00 | 0.00 | 0.00 | 80 | 1011.7 |
| 20260504210011 | 65 | 48 | 6.0 | 10.0 | 0.00 | 0.00 | 0.00 | 81 | 1011.8 |
| 20260504204010 | 66 | 24 | 5.0 | 8.0 | 0.00 | 0.00 | 0.00 | 83 | 1011.6 |
| 20260504203032 | 66 | 16 | 6.0 | 10.0 | 0.00 | 0.00 | 0.00 | 83 | 1011.4 |